Home > Weather > Springfield > Past weeks

Flag for U.S.A. Weather for the Past 2 Weeks in Springfield, Illinois, U.S.A.

Now
18 °F

Scattered clouds.


Feels Like: 5 °F
Forecast: 11 / 22 °F
Wind: 12 mph from Northwest

Location: Capital Airport

Current Time: Feb 10, 2016 at 12:29:55 PM

Latest Report: Feb 10, 2016 at 11:52 AM


Visibility: 10 mi

Pressure: 30.16 "Hg

Humidity: 57%

Dew point: 5 °F

Location of SpringfieldLocation

Historic Weather in Springfield — Graph

°F

Springfield Temperature Yesterday

Maximum temperature yesterday: 20 °F (at 12:52 AM)
Minimum temperature yesterday: 14 °F (at 11:52 PM)
Average temperature yesterday: 18 °F

High & Low Weather Summary for the Past Weeks

 TemperatureHumidityPressure
High62 °F (Jan 31, 12:52 PM)97% (Feb 1, 1:52 AM)30.45 "Hg (Feb 1, 1:52 AM)
Low8 °F (Feb 10, 5:52 AM)41% (Feb 1, 2:52 PM)29.46 "Hg (Feb 2, 2:52 PM)
Average35 °F72%29.98 "Hg
* Reported Jan 26 10:52 AM — Feb 10 10:52 AM, Springfield, Weather by CustomWeather, © 2016

Note: Actual official high and low records may vary slightly from our data, if they occured in-between our weather recording intervals... More about our weather records

Advertising

Springfield Weather History for the Previous 24 Hours

 ConditionsComfort  
Time TempWeatherWind HumidityBarometerVisibility
10:52 AM
Wed, Feb 10
17 °FSunny.13 mph62%30.18 "Hg10 mi
9:52 AM16 °FSunny.7 mph65%30.18 "Hg10 mi
8:52 AM13 °FSunny.9 mph67%30.18 "Hg10 mi
7:52 AM12 °FSunny.8 mph70%30.17 "Hg10 mi
6:52 AM8 °FClear.7 mph76%30.16 "Hg10 mi
5:52 AM8 °FClear.8 mph76%30.15 "Hg10 mi
4:52 AM10 °FClear.9 mph73%30.15 "Hg10 mi
3:52 AM12 °FClear.13 mph67%30.15 "Hg10 mi
2:52 AM12 °FClear.12 mph70%30.13 "Hg10 mi
1:52 AM13 °FClear.10 mph70%30.13 "Hg10 mi
12:52 AM13 °FClear.12 mph70%30.12 "Hg10 mi
11:52 PM
Tue, Feb 9
14 °FClear.14 mph67%30.12 "Hg10 mi
10:52 PM15 °FPassing clouds.15 mph64%30.12 "Hg10 mi
9:52 PM16 °FPassing clouds.18 mph62%30.12 "Hg10 mi
8:52 PM16 °FPassing clouds.17 mph62%30.11 "Hg10 mi
7:52 PM18 °FOvercast.16 mph68%30.09 "Hg10 mi
6:52 PM19 °FOvercast.13 mph65%30.09 "Hg10 mi
5:52 PM19 °FLight snow. Overcast.13 mph71%30.08 "Hg8 mi
4:52 PM19 °FLight snow. Overcast.16 mph68%30.06 "Hg6 mi
3:52 PM19 °FLight snow. Overcast.14 mph65%30.04 "Hg9 mi
2:52 PM20 °FLight snow. Overcast.22 mph65%30.01 "Hg5 mi
2:01 PM20 °FOvercast.17 mph65%29.97 "Hg8 mi
12:52 PM20 °FLight snow. Mostly cloudy.22 mph65%29.98 "Hg6 mi
Weather by CustomWeather, © 2016

See weather overviewHow to use our weather pages